Weather History for Cecil Field, FL

Change the Weather History Date:

Tuesday, March 12, 2013

  Actual Average (KJAX) Record (KJAX)
Temperature  
Mean Temperature 56 °F 61 °F  
Max Temperature 68 °F 73 °F 91 °F (1967)
Min Temperature 44 °F 49 °F 32 °F (2011)
Degree Days  
Heating Degree Days 9 6  
Month to date heating degree days 77  
Since 1 July heating degree days 1210  
Cooling Degree Days 0 2  
Month to date cooling degree days 16  
Year to date cooling degree days 45  
Growing Degree Days 6 (Base 50)    
Moisture  
Dew Point 55 °F    
Average Humidity 81    
Maximum Humidity 100    
Minimum Humidity 45    
Precipitation  
Precipitation 0.00 in 0.13 in 1.41 in (1912)
Month to date precipitation 1.64  
Year to date precipitation 8.13  
Snow  
Snow 0.00 in 0.00 in 0.00 in (2002)
Month to date snowfall 0.0  
Since 1 July snowfall T  
Snow Depth -    
Sea Level Pressure  
Sea Level Pressure 29.93 in    
Wind  
Wind Speed 5 mph (SSW)    
Max Wind Speed 15 mph    
Max Gust Speed -    
Visibility 9 miles    
Events Rain    
T = Trace of Precipitation, MM = Missing Value Source: NWS Daily Summary

Daily Weather History Graph

Daily Weather History Graph

Search for Another Location

Airport:

Trip Planner

Search our weather history database for the weather conditions in past years. The results will help you decide how hot, cold, wet, or windy it might be!

Date:

Astronomy

Mar. 12, 2013 Rise Set
Actual Time 7:40 AM EDT 7:34 PM EDT
Civil Twilight 7:16 AM EDT 7:57 PM EDT
Nautical Twilight 6:48 AM EDT 8:25 PM EDT
Astronomical Twilight 6:21 AM EDT 8:53 PM EDT
Moon 7:53 AM EDT (3/12) 8:38 PM EDT (3/12)
Length of Visible Light 12h 41m
Length of Day
11h 53m
New Moon, 1% of the Moon is Illuminated
Mar 12
New Moon
Mar 19
First Quarter
Mar 27
Full
Apr 3
Last Quarter
Apr 10
New

Hourly Weather History & Observations

Time (EDT) Temp. Dew Point Humidity Pressure Visibility Wind Dir Wind Speed Gust Speed Precip Events Conditions
12:15 AM 66.2 °F 59.0 °F 78% 29.92 in 9.0 mi SE 4.6 mph - N/A Rain Light Rain
12:35 AM 64.4 °F 59.0 °F 83% 29.92 in 10.0 mi SSE 4.6 mph - N/A   Clear
12:55 AM 66.2 °F 59.0 °F 78% 29.89 in 10.0 mi SE 4.6 mph - N/A   Clear
1:15 AM 66.2 °F 59.0 °F 78% 29.88 in 10.0 mi SSE 6.9 mph - N/A   Clear
1:55 AM 66.2 °F 59.0 °F 78% 29.88 in 10.0 mi SSE 6.9 mph - N/A   Clear
2:15 AM 66.2 °F 59.0 °F 78% 29.89 in 10.0 mi SSE 5.8 mph - N/A   Partly Cloudy
2:35 AM 66.2 °F 59.0 °F 78% 29.88 in 10.0 mi SSE 5.8 mph - N/A   Partly Cloudy
2:55 AM 66.2 °F 59.0 °F 78% 29.87 in 10.0 mi SSE 5.8 mph - N/A   Clear
3:15 AM 66.2 °F 59.0 °F 78% 29.86 in 10.0 mi SSE 6.9 mph - N/A   Clear
3:55 AM 66.2 °F 59.0 °F 78% 29.86 in 10.0 mi SSE 4.6 mph - N/A   Scattered Clouds
4:15 AM 66.2 °F 59.0 °F 78% 29.85 in 10.0 mi SSE 8.1 mph - N/A   Scattered Clouds
4:55 AM 66.2 °F 59.0 °F 78% 29.85 in 10.0 mi SSE 5.8 mph - N/A   Scattered Clouds
5:15 AM 66.2 °F 59.0 °F 78% 29.85 in 10.0 mi SSE 4.6 mph - N/A   Mostly Cloudy
5:35 AM 66.2 °F 60.8 °F 83% 29.86 in 7.0 mi South 5.8 mph - N/A Rain Light Rain
5:55 AM 64.4 °F 60.8 °F 88% 29.86 in 10.0 mi SSE 4.6 mph - N/A   Clear
6:15 AM 64.4 °F 60.8 °F 88% 29.86 in 10.0 mi South 4.6 mph - N/A   Scattered Clouds
7:50 AM 62.6 °F 62.6 °F 100% 29.89 in 2.0 mi South 5.8 mph - N/A Rain Rain
8:50 AM 62.6 °F 62.6 °F 100% 29.88 in 2.0 mi South 9.2 mph - N/A Rain Light Rain
10:50 AM 64.4 °F 64.4 °F 100% 29.92 in 3.0 mi South 6.9 mph - N/A   Overcast
11:50 AM 66.2 °F 66.2 °F 100% 29.93 in 2.5 mi WSW 15.0 mph - N/A Rain Light Rain
12:20 PM 64.4 °F 64.4 °F 100% 29.94 in 5.0 mi West 9.2 mph - N/A   Overcast
1:50 PM 66.2 °F 62.6 °F 88% 29.92 in 10.0 mi WNW 6.9 mph - N/A   Overcast
2:50 PM 62.6 °F 59.0 °F 88% 29.92 in 9.0 mi Calm Calm - N/A   Overcast
3:50 PM 68.0 °F 60.8 °F 78% 29.90 in 10.0 mi WNW 9.2 mph - N/A   Mostly Cloudy
4:50 PM 68.0 °F 57.2 °F 68% 29.91 in 10.0 mi NW 8.1 mph - N/A   Mostly Cloudy
5:50 PM 68.0 °F 53.6 °F 60% 29.92 in 10.0 mi NW 6.9 mph - N/A   Clear
6:50 PM 64.4 °F 42.8 °F 45% 29.94 in 10.0 mi Calm Calm - N/A   Clear
7:50 PM 59.0 °F 46.4 °F 63% 29.97 in 10.0 mi NW 5.8 mph - N/A   Clear
8:15 PM 57.2 °F 46.4 °F 67% 29.98 in 10.0 mi WNW 9.2 mph - N/A   Clear
8:35 PM 55.4 °F 44.6 °F 67% 29.99 in 10.0 mi WNW 6.9 mph - N/A   Clear
8:55 PM 55.4 °F 44.6 °F 67% 30.01 in 10.0 mi West 5.8 mph - N/A   Clear
9:15 PM 53.6 °F 44.6 °F 72% 30.01 in 10.0 mi WSW 3.5 mph - N/A   Clear
9:55 PM 50.0 °F 44.6 °F 82% 30.03 in 10.0 mi WSW 3.5 mph - N/A   Clear
10:15 PM 50.0 °F 44.6 °F 82% 30.03 in 10.0 mi WSW 3.5 mph - N/A   Clear
10:35 PM 50.0 °F 44.6 °F 82% 30.04 in 10.0 mi WSW 4.6 mph - N/A   Clear
10:55 PM 48.2 °F 44.6 °F 87% 30.04 in 10.0 mi Calm Calm - N/A   Clear
11:15 PM 46.4 °F 44.6 °F 93% 30.03 in 10.0 mi Calm Calm - N/A   Clear
11:35 PM 44.6 °F 44.6 °F 100% 30.04 in 10.0 mi Calm Calm - N/A   Clear
11:55 PM 44.6 °F 44.6 °F 100% 30.04 in 10.0 mi Calm Calm - N/A   Clear